Regional Weather Roundup
Issued by NWS

Home | Current Version | Previous Version | Text Only | Print | Product List | Glossary Off
Versions: 1 2 3 4 5 6 7 8 9 10 11 12 13 14 15 16 17 18 19 20 21 22 23 24 25 26 27 28 29 30 31 32 33 34 35 36 37 38 39 40 41 42 43 44 45 46 47

000
ASUS43 KDMX 240407
RWRIA

WEATHER ROUNDUP FOR IOWA
NATIONAL WEATHER SERVICE DES MOINES IA
1100 PM CDT TUE SEP 23 2014

NOTE: "FAIR" INDICATES FEW OR NO CLOUDS BELOW 12,000 FEET WITH NO
SIGNIFICANT WEATHER AND/OR OBSTRUCTIONS TO VISIBILITY.

* - THESE STATIONS ARE NOT NWS STATIONS...THUS NOT UNDER NWS
QUALITY CONTROL.  THEY ALSO DO NOT REPORT WEATHER SUCH
AS PRECIPITATION OR FOG.

IAZ001>003-012>014-020>022-031>034-043>046-240500-
   NORTHWEST IOWA

CITY           SKY/WX    TMP DP  RH WIND       PRES   REMARKS
CARROLL *      CLOUDY    61  55  82 SE6       30.14S
CHEROKEE *     CLOUDY    61  59  94 S6        30.11S
DENISON *      CLOUDY    63  52  67 S12G22    30.11R
LE MARS *        N/A     63  55  77 SE9       30.08F
ORANGE CITY *  CLOUDY    63  52  67 SE10G16   30.08F
SHELDON *      CLOUDY    59  57  94 SE7       30.09S
SIOUX CITY     CLOUDY    63  55  75 S9        30.08S
SPENCER        CLOUDY    60  56  86 SE12      30.13S
STORM LAKE *   CLOUDY    59  59 100 SE7       30.13S
$$

IAZ055>058-069>071-079>083-090>094-240500-
   SOUTHWEST IOWA

CITY           SKY/WX    TMP DP  RH WIND       PRES   REMARKS
ATLANTIC *     CLOUDY    63  50  63 SE7       30.14F
AUDUBON *      CLOUDY    61  52  72 S5        30.16S
CLARINDA *     CLOUDY    59  55  88 CALM      30.16S
COUNCIL BLFS * CLOUDY    61  57  88 SE12      30.11S
CRESTON *      CLEAR     59  52  77 SE3       30.18R
HARLAN  *      CLOUDY    63  52  67 S9        30.16S
LAMONI         CLOUDY    62  52  69 SE3       30.18R
RED OAK *      CLOUDY    61  54  77 S6        30.14S
SHENANDOAH *     N/A     63  57  82 SE5       30.14S
$$

IAZ047>049-059>061-072>074-084-240500-
   CENTRAL IOWA

CITY           SKY/WX    TMP DP  RH WIND       PRES   REMARKS
AMES           MOCLDY    55  53  93 SE3       30.18S
ANKENY *       CLEAR     63  54  72 SE8       30.18S
CHARITON *     CLOUDY    61  54  77 S5        30.20R
DES MOINES     CLOUDY    64  52  64 SE9       30.18S
GRINNELL*      MOCLDY    59  50  72 SE6       30.22R
KNOXVILLE *    MOCLDY    61  52  72 SE6       30.19R
MARSHALLTOWN   MOCLDY    59  51  75 SE7       30.21R
PELLA *        CLOUDY    61  52  72 SE5       30.22R
PERRY *        CLOUDY    61  54  77 SE6       30.17S
$$

IAZ004>006-015-016-023>025-035-036-240500-
   NORTH CENTRAL IOWA

CITY           SKY/WX    TMP DP  RH WIND       PRES   REMARKS
ALGONA *       CLOUDY    63  54  72 SE12      30.17R
CLARION *      CLOUDY    61  52  72 SE8       30.18R
ESTHERVILLE    CLOUDY    57  55  93 S8        30.15S
FORT DODGE *   CLOUDY    63  52  67 S8        30.17S
MASON CITY     CLOUDY    61  51  70 SE9       30.21R
FOREST CITY *  CLOUDY    61  52  72 SE7       30.19R
IOWA FALLS *     N/A     59  50  72 SE6       30.21S
$$

IAZ007>011-017>019-026>030-037>042-050>054-066-240500-
   NORTHEAST IOWA

CITY           SKY/WX    TMP DP  RH WIND       PRES   REMARKS
CEDAR RAPIDS   MOCLDY    60  51  72 SE6       30.23R
CHARLES CITY * CLOUDY    59  50  72 SE7       30.23R
CLINTON *      CLOUDY    57  48  72 SE7       30.29R
DECORAH *      CLEAR     57  50  77 SE6       30.24R
DUBUQUE        MOCLDY    57  48  72 S10       30.27R
MONTICELLO *   CLEAR     52  50  93 CALM      30.25R
OELWEIN *      CLOUDY    55  48  76 SE6       30.25R
WATERLOO       MOCLDY    60  49  66 SE7       30.22R
$$

IAZ064-065-067-068-078-240500-
   EAST CENTRAL IOWA

CITY           SKY/WX    TMP DP  RH WIND       PRES   REMARKS
DAVENPORT      CLOUDY    56  46  69 SE6       30.26R
IOWA CITY      MOCLDY    57  52  83 SE3       30.25R
MT. PLEASANT * MOCLDY    57  50  77 SE5       30.24R
MUSCATINE *    CLEAR     55  52  88 CALM      30.25R
QUAD CITIES    MOCLDY    56  50  80 CALM      30.26R
$$

IAZ062-063-075>077-085>089-095>099-240500-
   SOUTHEAST IOWA

CITY           SKY/WX    TMP DP  RH WIND       PRES   REMARKS
BURLINGTON     PTCLDY    57  50  77 CALM      30.24S
FAIRFIELD *    CLOUDY    59  50  72 SE7       30.22S
FORT MADISON * CLEAR     59  52  77 SE5       30.25S
KEOKUK *       CLEAR     57  54  88 E5        30.24R
OSKALOOSA *    MOCLDY    59  52  77 SE5       30.22R
CENTERVILLE *  CLEAR     61  54  77 SE8       30.21R
OTTUMWA        MOCLDY    63  49  60 S9        30.21R
WASHINGTON *   CLEAR     55  52  88 SE7       30.23S
$$

ABBREVIATIONS USED IN REMARKS
   TC - TEMPERATURES IN CELSIUS
  WCI - WIND CHILL INDEX
   HX - HEAT INDEX
  VSB - VISIBILITY
$$




USA.gov is the U.S. government's official web portal to all federal, state and local government web resources and services.